Theta_e
316 315 313 312 312 312 311 311 310 309 308 308 309 309 309 308 308 310 309 309 308 308 307 308 309 306 307 307 307 307 306 308 309 311 313 318 319 319 319 322 321 323 322 326 327 327 328
320 316 314 312 312 311 311 311 310 309 308 308 308 307 307 307 307 308 309 309 309 308 307 307 308 305 308 307 306 307 306 308 309 313 316 318 318 317 318 320 323 321 320 325 326 328 326
321 320 315 313 311 311 311 311 310 309 309 308 308 307 307 307 307 307 309 309 309 306 307 307 307 307 305 305 307 307 308 309 309 314 316 317 317 319 318 318 321 321 322 325 327 326 326
324 322 318 313 311 311 310 310 310 309 309 309 307 307 307 307 307 307 308 308 305 304 305 304 306 307 305 305 306 308 309 310 312 315 316 315 316 318 319 319 320 324 325 326 324 325 326
324 323 321 317 312 308 310 310 310 310 309 309 307 307 306 306 307 307 307 303 303 304 304 304 307 306 306 306 307 308 309 312 314 314 313 314 316 318 319 320 321 321 325 324 325 325 325
323 324 323 319 313 308 308 308 310 309 309 308 307 306 306 306 307 306 305 302 304 305 307 306 307 307 307 307 307 309 310 312 314 313 313 314 316 319 319 322 324 322 320 321 324 325 324
322 324 323 321 316 310 305 303 309 309 309 308 306 306 306 306 306 305 304 306 309 310 307 307 307 307 307 308 309 310 310 313 313 314 315 313 319 320 317 318 316 318 318 318 320 324 325
322 323 324 323 319 311 304 301 308 308 308 308 307 306 306 306 306 304 305 308 307 308 310 308 307 307 308 308 311 311 312 313 314 315 314 316 320 316 316 317 318 319 316 317 320 322 324
321 322 324 324 320 313 306 301 305 303 308 308 306 305 306 306 304 306 306 307 306 307 313 310 309 308 309 309 311 312 312 313 313 314 316 316 319 317 318 318 319 320 319 319 321 320 319
323 321 323 323 320 315 308 300 301 300 308 307 306 305 306 305 307 307 307 305 306 307 314 311 310 310 310 309 311 311 312 314 312 314 315 317 316 317 318 319 318 320 318 320 321 320 321
323 320 323 325 321 317 308 300 299 300 307 307 305 305 305 307 308 309 307 306 306 308 319 312 313 310 310 311 311 312 312 314 313 313 315 318 317 317 319 317 316 319 318 320 320 319 318
324 321 321 325 323 318 309 300 298 300 305 307 304 305 305 307 308 307 306 306 307 316 314 312 312 313 312 310 310 312 313 313 313 313 314 315 315 317 316 317 316 318 319 318 318 318 321
315 322 321 323 323 318 309 300 298 300 304 305 304 306 308 308 309 306 307 308 317 320 311 314 313 312 312 312 311 312 314 314 315 316 314 315 317 316 317 319 318 318 319 321 321 322 318
313 320 322 321 322 317 309 300 298 301 303 304 306 306 307 308 307 306 308 313 319 314 314 313 314 313 314 312 313 311 312 312 313 315 317 313 318 317 316 318 318 317 318 321 319 318 315
312 313 321 322 320 318 308 299 299 301 302 305 307 308 308 308 307 308 311 318 319 317 314 314 313 314 316 314 313 313 312 312 312 313 318 317 316 315 316 316 316 316 316 316 320 316 314
313 313 321 322 320 319 307 299 299 301 302 306 309 310 309 308 306 308 313 317 315 312 312 313 314 314 314 316 315 314 313 312 311 312 314 318 319 316 316 316 317 319 317 319 316 315 316
308 314 321 320 319 318 307 299 299 301 302 307 310 313 309 307 307 311 311 317 313 312 312 313 314 313 312 313 315 314 314 312 311 312 313 316 318 318 316 317 318 319 321 320 317 314 312
309 313 320 320 320 318 308 298 299 301 303 307 312 316 308 307 314 316 319 312 310 312 312 312 313 313 313 312 311 311 314 311 314 314 314 313 316 317 318 316 315 316 317 319 321 318 314
309 313 317 320 321 320 308 298 299 302 305 308 313 311 306 308 319 318 310 308 310 313 313 313 313 312 311 311 311 309 310 313 313 315 315 313 314 319 320 317 317 318 316 316 316 316 315
311 311 318 320 321 318 307 298 300 302 305 309 311 311 306 308 308 309 309 308 309 311 312 311 311 310 310 310 308 309 309 310 311 312 315 313 315 313 315 317 316 317 317 317 317 320 316
308 310 318 318 319 316 306 298 300 302 307 307 307 311 310 310 307 308 306 307 306 307 309 309 310 310 307 309 306 305 302 302 306 310 312 310 313 315 314 314 315 316 316 317 318 318 317
308 309 312 316 319 315 304 298 301 301 306 303 307 306 302 304 304 305 305 306 307 307 307 304 306 304 304 304 303 301 302 303 305 307 309 307 314 311 316 316 316 316 315 315 315 316 317
308 310 312 313 316 313 302 298 301 301 305 303 302 302 306 303 304 304 305 306 306 304 303 303 302 301 301 301 301 301 300 300 304 305 305 306 309 312 317 315 313 316 314 314 314 314 315
307 308 313 312 313 311 299 299 301 301 301 303 301 303 306 304 302 303 303 303 303 303 303 302 301 301 300 299 299 299 299 300 300 303 304 305 305 308 317 315 316 313 309 312 314 313 313
305 306 313 311 314 305 298 300 302 301 302 300 301 304 305 304 302 302 302 302 301 300 300 301 300 299 298 299 302 305 308 306 306 303 304 304 305 309 316 315 312 309 308 311 312 311 310
305 306 308 309 312 302 298 301 302 301 300 299 299 302 306 303 302 302 301 301 301 301 301 301 299 298 299 303 304 306 306 306 312 309 305 305 304 310 314 315 316 310 307 307 308 309 310
305 309 311 311 308 302 300 301 301 300 299 298 298 300 304 303 300 300 301 301 300 300 300 300 299 299 300 303 305 308 307 307 309 311 308 310 309 307 312 314 312 308 307 308 310 313 313
305 306 310 311 306 300 300 301 301 299 299 298 298 301 303 302 299 299 300 299 299 299 301 299 300 300 301 303 303 304 305 305 305 307 310 310 310 312 311 312 314 308 308 309 310 310 311
305 307 309 308 304 300 301 300 299 299 298 298 298 301 302 301 298 298 298 298 298 298 299 298 299 298 299 301 301 299 302 301 303 304 308 309 310 311 314 313 308 307 308 307 307 307 310
Wind_Speed
18 15 13 13 12 13 11 10 12 14 13 14 15 15 14 14 13 14 14 13 13 13 14 15 16 15 11 4 6 6 12 4 1 13 15 10 8 6 10 9 10 9 7 8 8 7 6
21 17 15 13 12 12 12 10 11 12 13 13 14 15 15 14 13 13 14 13 13 12 13 14 15 14 9 8 9 7 7 5 8 12 12 6 5 8 5 14 15 12 9 13 7 4 5
24 19 17 14 13 12 12 11 10 12 12 13 13 14 14 14 13 13 13 13 12 11 12 12 13 10 8 7 10 9 5 4 7 4 6 6 10 6 11 4 14 15 12 12 11 16 4
28 24 19 16 15 13 12 12 10 10 11 12 14 14 14 13 13 13 13 12 10 11 11 9 8 9 3 6 7 13 11 6 1 7 6 8 9 5 5 4 3 13 11 3 6 6 2
27 28 23 18 17 14 12 11 11 10 10 11 12 13 13 12 12 12 12 10 7 9 7 6 6 5 3 6 11 11 10 4 13 10 13 6 4 4 4 1 3 6 4 9 5 10 4
28 28 29 20 18 16 14 12 12 10 9 11 11 12 12 11 11 11 11 7 6 9 5 6 6 1 8 8 8 9 5 3 7 6 6 8 6 5 1 4 8 10 14 13 11 11 10
29 28 30 23 20 17 15 13 12 10 9 11 11 12 11 9 10 8 9 5 4 3 11 5 5 5 7 10 3 6 6 7 7 5 4 4 2 5 8 11 5 7 9 11 14 14 12
32 28 31 27 21 18 15 14 13 11 9 9 10 10 9 7 7 4 4 2 3 2 2 4 1 5 3 4 4 6 10 0 6 6 8 4 4 8 9 9 8 3 9 11 11 10 12
33 30 33 30 22 20 16 15 14 11 9 9 9 9 7 4 1 2 3 5 2 3 3 2 2 3 2 5 4 5 3 3 4 5 4 4 0 8 8 7 7 7 11 6 5 7 4
33 31 36 31 23 21 17 15 14 11 10 9 8 7 4 2 1 1 2 2 2 2 2 5 1 3 1 1 3 1 3 1 2 5 5 4 4 6 5 7 7 6 2 7 5 3 3
32 31 33 30 25 23 20 15 14 11 10 8 7 5 4 4 2 1 4 2 1 1 1 4 2 1 2 2 5 3 1 3 4 5 2 1 4 5 8 7 6 2 6 7 3 5 6
41 30 31 36 30 26 22 17 14 12 10 8 6 4 8 3 1 4 4 4 1 1 1 2 2 1 4 3 4 4 3 3 4 5 2 1 5 4 5 9 2 5 1 3 3 1 1
45 34 32 38 35 28 22 19 14 12 9 8 5 11 7 1 1 7 5 3 1 2 1 3 2 1 4 2 4 7 8 6 4 4 4 1 3 2 2 2 2 6 5 2 1 2 5
45 38 34 38 40 28 23 20 15 12 8 7 11 11 7 1 6 7 4 2 3 1 4 4 1 5 4 4 4 7 5 9 12 8 4 5 4 8 8 5 4 6 6 3 4 4 4
45 44 34 39 40 26 25 22 17 12 8 12 16 8 5 6 6 4 3 3 2 3 5 3 2 5 4 6 3 4 11 12 11 14 5 6 5 4 2 6 2 6 5 4 2 6 1
42 43 36 37 40 30 29 24 20 14 11 22 10 6 6 8 6 5 0 1 3 3 3 2 4 6 6 7 4 5 5 7 16 15 8 1 3 6 4 2 3 2 2 2 1 2 3
50 42 40 33 44 33 31 27 22 17 15 22 5 3 6 9 6 4 2 1 2 5 5 4 5 5 7 7 9 4 5 9 8 9 10 7 5 3 5 7 7 5 2 4 1 4 2
48 43 42 38 41 36 33 30 25 20 21 20 3 2 9 10 3 2 2 3 1 4 6 5 4 8 9 10 10 8 8 9 5 11 8 6 3 5 8 5 8 8 9 6 3 4 3
38 35 39 40 39 37 35 33 28 25 34 13 3 3 6 6 2 2 3 3 3 5 6 4 5 6 5 6 5 7 6 5 2 3 4 8 5 1 5 2 5 7 9 13 7 5 4
22 31 38 45 41 41 39 36 32 28 33 15 3 3 3 3 3 2 4 5 3 6 5 5 7 7 8 10 10 8 9 8 9 5 13 2 3 7 12 5 5 5 12 15 10 5 6
32 25 35 54 39 45 42 39 34 29 33 10 2 2 4 4 5 4 2 1 4 4 5 2 4 10 6 4 9 13 13 12 7 15 4 6 4 6 13 7 5 3 9 16 18 14 10
23 27 26 49 40 47 44 41 36 31 35 5 3 3 1 3 4 5 5 6 4 2 2 4 6 6 5 6 9 12 9 7 4 6 6 6 2 4 10 3 3 4 11 12 19 18 17
22 17 25 53 53 50 47 42 38 35 37 8 5 4 2 3 4 4 3 2 2 3 1 2 3 5 8 5 6 9 7 7 2 2 4 2 4 6 1 7 4 4 13 15 11 14 15
26 22 21 54 56 50 49 43 40 37 37 7 7 4 3 3 3 4 3 3 1 3 4 2 5 4 4 7 10 10 11 12 11 8 7 1 2 1 3 7 4 4 3 19 16 13 14
26 26 32 55 54 52 48 44 40 35 41 11 6 2 3 3 4 3 5 3 3 4 3 1 3 4 6 5 3 5 1 2 4 11 12 8 1 3 3 4 2 2 2 5 8 8 9
25 23 24 50 54 49 46 42 38 34 40 24 7 3 2 5 1 6 5 3 2 2 4 4 3 3 4 2 1 2 2 3 2 1 6 12 7 4 3 2 1 3 1 3 4 3 4
16 30 36 52 51 47 42 39 35 31 34 22 7 6 0 4 2 3 3 3 3 2 1 3 2 2 3 1 1 2 3 3 3 3 3 3 3 7 5 3 5 6 6 2 1 2 3
17 28 37 52 45 46 41 36 32 31 31 24 7 7 3 3 3 4 2 4 3 0 0 3 2 2 2 1 1 1 2 4 3 2 2 5 4 4 4 3 4 3 3 2 1 2 2
21 23 47 48 43 40 34 31 32 30 32 20 6 13 12 7 3 10 14 11 10 8 2 2 1 2 3 1 1 1 2 1 5 3 2 2 2 3 3 1 3 4 3 5 5 2 3
Wind_Direction
305 299 299 301 307 313 321 335 338 338 338 337 333 334 330 324 322 331 330 336 333 328 327 327 333 337 333 55 24 332 348 24 206 296 277 256 224 199 194 167 160 230 289 276 305 132 155
288 293 291 294 295 303 310 323 330 335 337 332 331 331 329 323 325 321 327 333 331 326 323 324 330 340 279 45 359 4 354 338 275 262 236 245 306 336 300 169 161 195 230 286 280 253 210
280 284 286 287 288 290 298 308 321 330 333 329 328 328 325 321 320 317 321 327 328 332 327 324 327 338 17 14 355 349 353 260 283 301 263 46 349 347 338 217 161 149 190 250 189 239 133
278 277 279 283 284 281 288 298 308 322 330 326 325 322 321 322 316 312 315 319 319 329 329 333 341 333 57 10 354 2 356 306 217 43 62 13 348 323 286 342 89 143 190 139 315 195 137
284 273 272 276 277 279 278 290 297 311 323 321 323 322 322 323 315 307 311 314 311 328 334 334 314 303 45 1 16 354 346 27 83 57 42 46 14 339 334 216 165 210 156 185 214 249 165
285 274 268 267 272 275 273 282 287 301 315 317 324 319 322 322 315 307 316 313 297 329 270 258 323 39 37 2 356 353 334 28 92 64 33 31 360 337 319 218 184 197 215 193 185 201 231
280 275 261 259 267 270 270 278 278 291 306 311 316 314 318 320 311 310 330 310 231 189 36 50 22 44 12 353 15 51 343 118 115 59 63 21 311 223 224 216 231 213 213 240 194 169 209
281 277 255 259 260 262 266 271 273 285 295 307 317 314 318 314 305 320 326 334 48 20 18 76 88 82 33 301 62 45 5 7 115 107 113 161 243 238 225 227 242 241 223 229 75 164 181
276 272 266 256 251 256 258 264 268 280 285 300 306 309 318 305 331 20 338 78 39 22 276 83 95 41 7 348 39 32 356 337 148 157 131 189 312 303 274 241 191 224 218 170 167 184 218
270 264 259 249 243 252 250 255 264 276 278 292 303 300 294 134 351 137 110 130 46 37 53 352 11 86 244 298 83 330 341 131 166 153 178 231 343 287 261 224 239 223 14 66 320 157 225
259 261 260 245 239 246 242 245 255 267 272 284 294 275 176 161 339 234 112 145 91 243 88 317 56 62 292 326 147 148 264 260 179 152 212 117 311 218 252 222 221 304 125 153 241 260 326
265 252 254 246 232 237 234 235 243 255 266 273 276 211 142 143 204 117 137 142 171 240 42 344 338 301 220 175 170 152 219 216 291 178 195 264 289 272 249 311 161 92 253 141 112 354 293
293 248 243 250 233 226 224 227 229 243 260 263 205 159 160 178 76 156 153 199 106 31 151 284 312 265 308 199 187 205 198 190 197 153 205 10 295 300 84 288 209 216 177 104 319 217 226
288 267 243 243 230 220 217 219 217 228 248 243 161 155 147 151 128 156 206 206 65 230 168 256 266 281 251 187 224 203 248 231 223 260 153 165 252 198 179 213 183 212 213 150 224 208 230
284 284 238 230 223 213 217 214 209 209 225 169 141 142 156 182 156 206 243 90 149 148 157 226 201 254 238 203 236 225 230 240 226 220 212 196 241 181 239 185 215 220 225 303 319 248 327
276 278 227 224 219 204 213 209 203 195 193 163 147 191 153 180 173 229 263 191 161 160 187 188 256 193 299 188 192 195 230 267 225 226 200 223 242 237 142 45 195 296 19 168 203 215 230
294 266 221 221 220 201 208 204 198 188 182 167 151 216 155 162 174 236 147 220 192 183 198 225 263 286 280 275 200 203 267 298 202 210 190 146 234 159 133 207 178 154 147 228 267 249 183
279 266 216 212 216 203 204 201 194 183 171 169 210 208 158 161 220 214 218 186 336 209 181 255 275 265 267 290 297 281 222 254 109 320 194 214 278 198 212 182 249 240 198 192 183 183 230
277 264 230 210 210 204 203 198 190 182 173 155 202 117 173 195 215 191 135 230 244 207 202 218 246 221 307 297 299 278 338 61 15 159 273 176 213 133 163 247 186 217 223 219 218 354 227
261 289 225 210 210 201 200 196 189 185 176 182 159 145 142 207 257 290 174 213 220 197 275 269 275 293 278 271 267 265 266 23 344 271 201 206 291 216 218 149 140 195 208 211 190 205 200
271 281 215 207 208 196 197 194 189 183 175 182 215 191 164 181 207 198 109 98 232 213 206 216 258 241 323 288 295 300 331 335 331 357 241 164 230 253 259 212 149 168 231 206 207 213 206
276 274 267 200 213 193 195 193 188 179 175 198 197 163 213 93 106 180 151 199 235 192 161 252 259 339 343 297 302 314 328 329 290 342 33 351 268 224 238 196 331 238 235 220 219 218 238
272 293 264 194 200 190 192 190 184 179 178 190 198 264 114 142 172 165 202 209 105 70 27 323 14 331 302 337 330 302 298 286 207 198 330 341 4 334 205 166 157 253 225 229 218 222 221
299 290 253 192 188 186 190 186 185 185 180 178 202 176 130 166 185 185 128 80 169 207 283 5 355 291 35 333 299 270 247 243 242 210 192 275 16 205 304 131 213 222 4 206 209 212 225
285 288 210 185 186 185 187 185 184 186 188 196 195 208 157 127 164 124 124 138 136 154 193 287 0 23 343 298 296 323 95 28 273 223 175 194 288 266 249 211 359 207 204 146 178 245 231
299 256 251 181 182 182 186 184 185 184 194 203 220 233 295 118 327 86 135 128 228 212 146 142 108 358 283 270 306 315 323 348 64 95 34 165 203 285 322 327 257 8 74 40 106 269 36
300 273 206 184 180 180 185 184 184 186 196 195 209 197 316 103 36 357 124 135 73 70 49 111 56 205 247 14 289 334 319 1 0 20 132 166 191 229 241 264 269 168 159 149 92 228 87
270 294 188 182 172 180 182 183 181 188 194 185 183 157 84 86 57 28 106 117 106 303 158 117 157 222 226 175 168 301 292 4 303 319 205 186 189 198 190 247 261 114 61 162 134 52 53
261 297 179 174 174 179 178 181 183 179 177 176 130 122 108 74 95 88 71 66 63 40 65 89 47 56 40 342 180 307 282 339 359 293 204 291 27 326 251 14 342 246 346 329 350 344 7